Kazime Ana — TCPT8 — position and weather

sailwx.info

Track history (hours):
 
Tides and Currents Weather Stations Pressure Air Temp Water Temp Dewpoint Dewpoint Depression Visibility Wind Speed Wind Dir Waves Ship Positions

Kazime Ana

Last reported at 2014-Oct-22 20:15 UTC. Time now 2014-Oct-22 23:13 UTC.
Position N 40°39' E 028°36'.

Length 115 m; draft 3.9 m.

Type: Cargo ship. MMSI: 271001019.

Date/timePositionNaut miles runAvg speedWind from/ knotsBaromVisibWave heightAir tempDewpointWater temp
2014-Oct-22 20:15N 40°39' E 028°36'811.3
2014-Oct-22 19:33N 40°40' E 028°46'1111.1
2014-Oct-22 18:33N 40°42' E 029°01'1111.4
2014-Oct-22 17:33N 40°44' E 029°15'5 5.0
2014-Oct-22 16:33N 40°45' E 029°22'0 0.0
2014-Oct-22 15:30N 40°45' E 029°22'0 0.0
2014-Oct-22 14:30N 40°45' E 029°22'0 0.0
2014-Oct-22 13:24N 40°45' E 029°22'0 0.0
2014-Oct-22 12:30N 40°45' E 029°22'0 0.0
2014-Oct-22 11:30N 40°45' E 029°22'0 0.0
2014-Oct-22 06:24N 40°45' E 029°22'0 0.0
2014-Oct-22 05:06N 40°45' E 029°22'0 0.0
2014-Oct-22 04:18N 40°45' E 029°22'0 0.0
2014-Oct-22 03:30N 40°45' E 029°22'0 0.0
2014-Oct-22 02:30N 40°45' E 029°22'0 0.0
2014-Oct-22 01:30N 40°45' E 029°22'0 0.0
2014-Oct-22 00:30N 40°45' E 029°22'0 0.0
2014-Oct-21 23:24N 40°45' E 029°22'0 0.0
2014-Oct-21 22:30N 40°45' E 029°22'0 0.0
2014-Oct-21 21:12N 40°45' E 029°22'0 0.0
2014-Oct-21 20:06N 40°45' E 029°22'0 0.0
2014-Oct-21 19:30N 40°45' E 029°22'0 0.0
2014-Oct-21 18:30N 40°45' E 029°22'0 0.0
2014-Oct-21 17:24N 40°45' E 029°22'0 0.0
2014-Oct-21 16:30N 40°45' E 029°22'0 0.0
2014-Oct-20 11:26N 40°45' E 029°22'3 3.4
2014-Oct-20 10:33N 40°45' E 029°18'5 5.2
2014-Oct-20 09:33N 40°47' E 029°11'10 9.9
2014-Oct-20 08:33N 40°51' E 028°60'35 3.2
2014-Oct-19 21:22N 41°22' E 029°23'7 9.0
2014-Oct-19 20:33N 41°23' E 029°33'  
2014-Oct-13 20:18N 41°16' E 029°40'7 9.6
2014-Oct-13 19:33N 41°16' E 029°31'9 9.1
2014-Oct-13 18:33N 41°16' E 029°19'  
Track history (hours):
 
Tides and Currents Weather Stations Pressure Air Temp Water Temp Dewpoint Dewpoint Depression Visibility Wind Speed Wind Dir Waves Ship Positions

Kazime Ana

Last reported at 2014-Oct-22 20:15 UTC. Time now 2014-Oct-22 23:13 UTC.
Position N 40°39' E 028°36'.

Length 115 m; draft 3.9 m.

Type: Cargo ship. MMSI: 271001019.

Date/timePositionNaut miles runAvg speedWind from/ knotsBaromVisibWave heightAir tempDewpointWater temp
2014-Oct-22 20:15N 40°39' E 028°36'811.3
2014-Oct-22 19:33N 40°40' E 028°46'1111.1
2014-Oct-22 18:33N 40°42' E 029°01'1111.4
2014-Oct-22 17:33N 40°44' E 029°15'5 5.0
2014-Oct-22 16:33N 40°45' E 029°22'0 0.0
2014-Oct-22 15:30N 40°45' E 029°22'0 0.0
2014-Oct-22 14:30N 40°45' E 029°22'0 0.0
2014-Oct-22 13:24N 40°45' E 029°22'0 0.0
2014-Oct-22 12:30N 40°45' E 029°22'0 0.0
2014-Oct-22 11:30N 40°45' E 029°22'0 0.0
2014-Oct-22 06:24N 40°45' E 029°22'0 0.0
2014-Oct-22 05:06N 40°45' E 029°22'0 0.0
2014-Oct-22 04:18N 40°45' E 029°22'0 0.0
2014-Oct-22 03:30N 40°45' E 029°22'0 0.0
2014-Oct-22 02:30N 40°45' E 029°22'0 0.0
2014-Oct-22 01:30N 40°45' E 029°22'0 0.0
2014-Oct-22 00:30N 40°45' E 029°22'0 0.0
2014-Oct-21 23:24N 40°45' E 029°22'0 0.0
2014-Oct-21 22:30N 40°45' E 029°22'0 0.0
2014-Oct-21 21:12N 40°45' E 029°22'0 0.0
2014-Oct-21 20:06N 40°45' E 029°22'0 0.0
2014-Oct-21 19:30N 40°45' E 029°22'0 0.0
2014-Oct-21 18:30N 40°45' E 029°22'0 0.0
2014-Oct-21 17:24N 40°45' E 029°22'0 0.0
2014-Oct-21 16:30N 40°45' E 029°22'0 0.0
2014-Oct-20 11:26N 40°45' E 029°22'3 3.4
2014-Oct-20 10:33N 40°45' E 029°18'5 5.2
2014-Oct-20 09:33N 40°47' E 029°11'10 9.9
2014-Oct-20 08:33N 40°51' E 028°60'35 3.2
2014-Oct-19 21:22N 41°22' E 029°23'7 9.0
2014-Oct-19 20:33N 41°23' E 029°33'  
2014-Oct-13 20:18N 41°16' E 029°40'7 9.6
2014-Oct-13 19:33N 41°16' E 029°31'9 9.1
2014-Oct-13 18:33N 41°16' E 029°19'  

Dump ship's entire track history